Location: Derby
(52.9213°N, 1.4761°W)
Time: 03:00:04
(UTC+01:00)

Vanguard 2 Rocket - Pass Details

Date: 27 May 2025
Orbit: 554 x 3293 km, 32.9° (Epoch: 12 June)

Event Time Altitude Azimuth Distance (km) Brightness Sun altitude
Rises 00:50:11 0° 254° (WSW) 7,251 11.4 -15.7°
Reaches altitude 10° 00:55:58 10° 247° (WSW) 6,102 10.9 -15.8°
Maximum altitude 01:10:58 33° 194° (SSW) 3,719 9.4 -15.8°
Drops below altitude 10° 01:21:35 10° 136° (SE) 4,298 9.9 -15.7°
Sets 01:24:50 0° 127° (SE) 4,935 10.4 -15.6°
